Temperature
14 15 15 15 15 15 16 16 15 16 16 16 16 15 16 15 16 16 16 16 15 15 15 15 15 15 15 15 15 15 15 15 15 15 15 14 14 14 14 14 14 14 14
14 14 15 15 15 15 16 15 15 15 15 15 15 15 15 15 15 15 15 15 15 15 15 15 15 15 15 15 15 15 15 15 15 15 14 14 14 14 14 14 14 14 14
14 14 14 15 15 15 15 15 15 15 15 15 15 15 15 15 15 15 15 15 15 15 15 15 15 15 15 15 15 15 15 15 15 14 14 14 14 14 14 14 14 14 14
13 14 14 14 15 15 15 15 15 15 15 15 15 15 15 15 15 15 15 15 15 15 15 15 15 15 15 15 15 15 15 15 14 14 13 13 13 14 14 14 14 14 14
13 13 14 14 14 15 15 15 15 15 15 15 15 15 15 15 15 15 15 15 15 15 15 15 15 15 15 15 15 14 14 14 14 14 13 13 13 13 13 14 14 14 14
13 13 14 14 14 14 14 14 14 15 15 15 15 15 15 15 15 15 15 15 15 15 14 14 14 14 14 14 14 14 14 14 14 13 13 13 13 13 13 13 13 13 13
13 13 13 14 14 14 14 14 14 14 14 14 14 15 14 14 14 15 15 15 14 14 14 14 14 14 14 14 14 14 14 14 13 13 13 13 13 13 13 13 13 13 13
13 13 13 13 13 13 14 14 14 14 14 14 14 14 14 14 14 14 14 14 14 14 14 14 14 14 14 14 14 14 14 14 13 13 13 13 13 13 13 13 13 13 13
12 12 13 13 13 13 13 13 13 14 14 14 14 14 14 14 14 14 14 14 14 14 14 14 14 14 14 14 14 14 14 13 13 13 12 12 13 12 12 12 12 12 12
12 12 12 12 13 13 13 13 13 13 13 13 13 14 14 14 14 14 14 14 14 14 14 14 14 14 14 13 13 13 13 13 13 12 12 12 12 12 12 12 12 12 12
12 12 12 12 12 12 12 12 13 13 13 13 13 13 13 13 13 13 13 14 14 14 14 14 14 14 13 13 13 13 13 13 12 12 12 12 12 12 12 11 12 11 11
11 11 11 12 12 12 12 12 12 12 12 12 12 13 13 13 13 13 13 13 13 13 13 13 13 13 13 13 13 13 12 12 12 12 12 12 12 11 11 11 11 11 11
11 11 11 11 11 11 11 11 11 12 12 12 12 12 12 12 12 12 12 13 13 13 13 13 13 13 13 12 12 12 12 12 11 11 12 12 11 11 11 11 11 11 11
10 10 11 11 11 11 11 11 11 11 11 11 11 11 12 12 12 12 12 12 12 12 12 12 12 12 12 12 12 12 12 11 11 11 11 11 11 11 11 11 11 11 11
10 10 10 10 10 10 10 11 10 11 11 11 11 11 11 11 12 12 12 12 12 12 12 12 12 12 12 12 11 11 11 11 11 11 11 11 11 11 11 10 10 10 10
9 9 10 10 10 10 10 10 10 10 10 10 10 10 11 11 11 11 11 11 11 11 12 12 12 12 11 11 11 11 11 11 11 10 10 10 10 10 10 10 10 10 10
9 9 9 9 9 10 10 10 10 10 10 10 10 10 10 10 11 11 11 11 11 11 11 11 11 11 11 11 11 11 10 10 10 10 10 10 10 10 10 10 10 10 9
8 9 9 9 9 9 9 9 9 9 9 9 9 9 10 10 10 10 10 11 11 11 11 11 11 11 11 10 10 10 10 10 10 10 10 10 10 10 10 10 9 9 9
8 8 8 8 9 9 9 9 9 9 9 9 9 9 9 9 9 10 10 10 10 10 10 10 10 10 10 10 10 10 9 9 9 9 9 9 9 9 9 9 9 9 9
7 7 7 8 8 8 8 8 8 8 8 8 8 8 9 9 9 9 9 9 10 10 10 10 10 10 9 9 9 9 9 9 9 9 9 9 9 9 9 9 8 8 9
6 7 7 7 7 7 7 7 7 7 8 8 8 8 8 8 8 8 8 9 9 9 9 9 9 9 9 9 9 8 8 8 8 8 8 8 8 8 8 8 8 8 8
6 6 6 6 7 7 7 7 7 7 7 7 7 7 7 7 8 8 8 8 8 8 8 8 8 8 8 8 8 7 7 7 8 8 8 8 8 8 8 8 8 8 8
5 5 5 6 6 6 6 6 6 6 6 7 7 7 7 7 7 7 7 7 7 7 7 7 8 8 8 7 7 7 7 7 7 7 7 7 7 7 7 7 7 7 7
5 5 5 5 5 5 6 6 6 6 6 6 6 6 6 6 6 6 6 6 6 6 7 7 7 7 7 6 6 6 6 6 6 6 6 7 7 7 7 7 7 7 7
4 4 5 5 5 5 5 5 5 5 5 5 5 5 5 5 6 6 6 6 6 6 6 6 6 6 6 6 6 6 6 6 6 6 6 6 6 6 6 6 6 6 6
4 4 4 4 4 4 4 5 5 5 5 5 5 5 5 5 5 5 5 5 5 5 5 5 5 5 5 5 5 5 5 5 5 5 5 5 5 5 6 6 6 6 5
Wind_Speed
1 2 2 2 4 5 7 7 8 9 10 9 9 9 10 10 11 11 11 11 11 11 11 11 11 12 12 12 12 12 12 12 12 13 13 13 12 12 12 11 9 11 12
1 1 1 2 4 5 6 7 8 9 9 9 10 10 10 10 10 10 11 11 10 10 10 11 11 11 11 11 11 11 11 11 11 11 11 12 12 12 11 10 9 11 12
2 1 2 3 4 4 6 7 7 8 9 9 9 9 9 10 10 10 10 10 9 9 10 10 11 11 11 11 11 10 11 11 10 9 8 9 10 10 10 10 11 11 11
3 2 2 4 4 4 5 5 6 7 8 9 8 8 9 10 10 9 9 9 9 9 10 10 10 11 11 11 10 10 10 10 9 6 6 7 8 9 9 9 10 9 9
4 4 4 5 5 5 5 5 5 5 6 7 8 8 9 9 9 9 9 9 8 9 9 10 10 10 10 10 10 10 9 9 8 5 6 6 7 8 8 8 8 8 8
3 4 5 5 5 5 5 5 5 5 5 6 6 7 8 8 8 8 8 8 8 8 8 9 9 10 9 9 9 9 9 8 6 5 5 5 6 7 7 7 7 7 7
3 4 5 6 6 5 6 6 5 5 5 5 5 6 7 8 8 8 7 7 7 7 8 8 9 9 9 9 8 8 8 6 5 6 5 5 6 6 6 7 7 6 6
4 4 4 5 5 5 5 5 5 4 4 5 5 5 6 7 7 7 7 7 7 7 7 8 8 8 8 8 8 8 8 6 5 5 5 5 6 5 6 6 6 5 5
5 4 4 4 4 4 5 4 4 4 3 4 4 5 5 5 7 7 7 7 6 6 7 7 7 7 7 8 8 8 7 4 4 4 4 4 5 4 4 4 4 4 4
5 5 5 4 3 2 3 4 4 4 3 3 4 4 4 5 6 6 7 7 6 6 6 7 7 7 7 7 8 7 6 4 4 5 4 4 4 3 4 4 3 3 4
4 5 4 4 3 2 2 3 2 3 2 2 3 4 4 4 5 5 6 6 6 6 6 7 7 7 7 7 8 7 6 4 4 3 3 4 3 3 3 3 3 3 2
3 4 4 3 3 2 2 2 1 1 1 1 1 2 2 2 3 3 5 6 6 6 6 6 7 7 6 5 6 6 4 3 3 3 3 4 2 2 2 2 3 2 1
1 2 3 3 3 2 2 2 2 2 2 1 1 1 1 2 2 3 3 5 6 6 5 5 6 5 4 4 4 4 3 3 2 3 3 3 1 1 1 1 2 2 1
1 2 3 3 2 2 2 1 1 2 2 2 2 2 1 0 1 2 2 2 3 3 3 3 3 4 4 4 4 4 3 2 2 2 3 3 1 0 0 0 1 1 2
1 2 2 2 2 2 1 1 1 2 2 2 2 2 1 0 1 1 2 2 2 3 3 3 3 3 3 3 3 3 3 3 3 2 2 3 1 0 1 0 0 1 1
2 2 2 2 2 1 1 1 1 2 2 2 2 3 2 1 0 1 1 1 2 2 3 3 3 3 3 2 3 3 3 2 2 2 1 2 3 2 1 1 0 0 0
2 1 2 1 1 1 1 1 2 1 2 2 1 2 3 2 1 1 1 1 1 2 2 3 3 3 3 3 3 3 2 2 2 2 1 1 1 1 1 1 1 1 1
2 1 2 1 1 1 0 1 1 1 1 1 1 1 2 2 1 0 0 0 0 1 2 3 3 3 3 3 2 2 2 2 3 2 2 1 1 0 0 1 1 2 2
2 2 2 2 1 1 0 1 1 1 2 1 1 1 2 2 1 0 0 1 0 1 2 2 3 3 3 3 2 2 2 2 2 2 2 1 1 1 1 0 1 2 3
2 2 2 2 1 1 1 1 1 1 1 1 2 2 2 1 1 0 0 0 0 0 1 2 2 2 2 2 2 2 2 2 2 2 2 2 1 2 2 2 2 2 2
3 3 2 2 2 1 1 0 0 0 1 1 1 2 2 1 1 1 1 0 0 1 1 1 2 2 2 2 2 1 2 2 2 2 2 2 2 2 3 3 3 3 3
3 3 3 3 2 1 1 0 1 1 1 1 1 2 2 2 1 0 1 1 1 1 1 1 1 1 1 2 1 1 2 2 2 3 3 3 3 3 3 3 4 4 4
3 3 2 3 2 2 1 0 0 1 1 1 1 1 3 2 1 1 1 2 1 2 2 2 3 3 2 2 1 1 2 2 1 2 3 3 3 3 4 4 5 5 4
2 2 2 2 2 2 1 1 1 1 1 1 1 1 2 2 1 1 2 2 2 2 3 2 3 3 4 3 2 1 2 1 2 2 3 3 4 5 4 4 5 5 5
2 2 2 2 2 2 1 1 2 2 2 1 1 2 2 1 1 1 2 2 3 3 3 2 3 3 3 4 3 2 2 2 3 3 4 4 4 4 5 5 5 5 6
2 2 2 2 2 2 2 2 2 2 2 2 2 2 2 2 2 2 2 2 3 3 3 3 3 4 4 4 4 3 3 3 3 4 5 5 5 4 5 5 6 5 6
Wind_Direction
13 334 3 26 95 103 113 123 127 127 127 128 129 130 128 125 121 117 116 120 120 118 117 116 114 111 107 103 101 100 102 101 101 99 96 96 97 96 95 95 98 92 89
321 316 49 52 89 101 111 122 128 127 128 131 132 133 133 130 126 122 118 119 120 120 119 118 116 114 112 109 107 105 103 104 103 100 99 98 95 95 94 89 82 89 89
24 35 89 73 89 99 110 113 123 126 128 131 133 134 133 131 130 129 125 122 120 119 119 118 116 116 115 112 110 110 107 104 103 105 114 107 100 95 98 95 90 91 90
43 50 67 72 85 94 108 108 119 128 128 131 131 132 132 129 129 130 129 126 124 121 118 118 116 115 117 116 115 112 108 106 103 117 115 103 105 99 101 100 97 94 91
51 49 59 70 75 86 101 105 106 121 126 129 128 130 131 130 128 127 128 127 125 124 122 118 116 116 119 122 121 117 112 109 109 121 108 106 105 104 104 104 100 97 95
58 51 58 65 75 86 88 99 97 108 119 127 129 130 133 131 128 127 124 124 124 124 126 124 121 121 119 122 124 122 118 118 133 117 112 110 104 105 108 108 106 105 102
60 48 55 60 68 84 84 83 94 97 110 113 124 132 134 132 130 126 125 120 122 126 128 127 126 126 126 122 125 125 122 128 132 116 113 108 100 103 110 109 108 108 104
53 46 51 56 57 68 74 77 80 85 106 114 114 122 135 137 134 129 125 124 121 125 127 127 126 127 127 127 122 121 123 136 130 121 117 112 96 100 112 109 104 105 104
54 48 48 50 52 63 65 66 71 71 99 115 113 113 115 138 142 138 135 132 129 126 133 135 133 134 132 130 127 120 122 140 139 124 120 109 100 106 115 111 105 104 111
50 42 38 37 39 52 70 66 67 65 84 104 111 112 111 126 148 149 143 139 137 132 138 141 139 137 135 133 131 127 129 153 140 127 120 107 107 114 116 118 118 112 111
39 30 26 28 34 38 60 69 73 73 78 103 121 117 132 149 155 161 152 142 144 140 140 145 147 143 140 135 130 132 147 151 136 124 110 92 115 121 120 125 129 118 109
19 17 17 18 24 38 55 69 71 87 104 97 115 158 165 154 153 152 146 145 147 144 146 146 149 151 154 147 139 146 155 155 144 134 104 84 120 135 132 136 139 139 106
358 6 7 11 16 27 42 64 67 66 62 64 79 69 163 152 147 160 155 161 163 163 163 155 163 164 164 152 153 156 150 155 148 138 114 93 115 176 180 181 166 179 187
351 346 350 3 12 19 25 46 70 81 65 58 46 40 44 136 159 161 162 169 175 171 168 171 170 165 167 161 161 158 156 163 157 138 109 104 105 125 222 220 158 170 168
315 317 326 345 357 10 20 22 64 80 72 75 60 33 10 122 184 167 161 164 176 170 171 173 169 163 169 167 166 166 165 170 166 154 129 101 83 348 310 272 211 214 196
284 293 306 322 336 7 27 28 43 65 76 70 60 40 15 6 153 182 166 175 178 178 179 182 169 168 172 174 174 174 179 180 179 179 168 119 81 51 35 51 35 303 302
302 300 301 303 335 360 36 43 42 53 80 75 63 48 32 13 14 179 162 170 177 176 175 176 173 172 170 176 184 185 187 193 189 186 175 167 141 85 45 26 7 0 340
331 345 357 6 8 357 54 88 64 42 57 61 58 52 43 26 20 84 133 149 107 173 174 174 183 180 176 182 191 195 192 188 193 188 178 173 178 211 144 30 357 339 324
330 336 4 18 27 9 26 99 90 64 48 53 57 48 45 35 28 17 44 40 60 164 175 177 187 187 183 185 192 197 202 199 195 188 192 193 202 247 252 208 274 321 321
349 354 4 11 22 30 50 100 127 96 42 36 31 27 24 38 15 0 29 74 88 157 182 176 183 178 187 192 191 198 206 208 202 202 213 215 229 249 257 258 245 252 307
14 13 10 1 7 18 22 333 208 255 298 324 11 20 8 10 16 358 324 183 131 189 211 188 173 163 176 182 191 204 216 212 220 221 228 229 231 237 253 259 255 258 255
3 2 1 355 355 350 330 289 255 254 257 284 7 13 1 360 7 353 283 254 207 209 201 188 174 176 175 181 196 207 220 216 216 227 225 230 242 238 242 248 250 252 260
350 349 347 344 341 337 324 302 137 201 250 300 328 330 346 341 324 265 249 241 220 213 210 211 203 193 197 197 211 214 216 229 265 209 224 229 237 243 243 242 245 249 252
335 337 343 346 345 343 323 233 203 214 241 269 286 289 308 323 297 265 243 237 226 221 212 213 220 216 200 203 203 238 269 265 241 242 222 225 238 244 243 244 245 247 252
335 338 342 355 353 343 322 268 222 227 243 261 266 273 277 294 307 286 247 236 234 233 225 221 229 226 217 216 214 221 246 248 254 256 255 245 247 245 247 247 249 249 249
338 343 346 347 340 333 317 291 253 233 236 242 251 255 260 265 269 276 262 242 237 240 233 228 230 231 229 226 227 220 224 227 237 245 254 251 256 255 252 247 247 248 248
Height
1513 1514 1514 1515 1516 1516 1517 1517 1518 1519 1519 1520 1520 1521 1522 1522 1523 1524 1524 1525 1525 1526 1526 1526 1526 1526 1526 1527 1527 1527 1527 1528 1528 1528 1528 1529 1529 1529 1529 1530 1530 1530 1530
1513 1514 1514 1515 1516 1517 1517 1517 1518 1519 1519 1520 1520 1521 1522 1523 1523 1524 1525 1525 1526 1526 1526 1527 1527 1527 1527 1527 1528 1528 1528 1528 1529 1529 1529 1530 1530 1530 1531 1531 1531 1531 1531
1513 1514 1514 1515 1516 1517 1517 1518 1518 1519 1519 1520 1521 1521 1522 1523 1524 1524 1525 1525 1526 1527 1527 1527 1527 1528 1528 1528 1528 1529 1529 1529 1529 1530 1531 1531 1531 1531 1532 1532 1532 1532 1532
1513 1514 1514 1515 1516 1517 1517 1518 1518 1519 1519 1520 1521 1521 1522 1523 1524 1524 1525 1525 1526 1527 1527 1528 1528 1528 1528 1529 1529 1529 1529 1530 1530 1531 1532 1532 1532 1532 1532 1532 1532 1532 1532
1513 1514 1514 1515 1516 1516 1517 1518 1518 1519 1519 1520 1521 1521 1522 1523 1523 1524 1525 1525 1526 1527 1527 1528 1528 1528 1529 1529 1529 1530 1530 1530 1531 1532 1532 1533 1533 1533 1533 1533 1533 1533 1533
1513 1514 1514 1515 1515 1516 1517 1517 1518 1518 1519 1520 1520 1521 1522 1522 1523 1524 1524 1525 1526 1527 1527 1528 1528 1528 1529 1529 1530 1530 1530 1531 1531 1532 1533 1533 1533 1533 1533 1533 1533 1533 1533
1513 1513 1514 1514 1515 1515 1516 1517 1517 1518 1518 1519 1520 1520 1521 1522 1522 1523 1524 1525 1526 1526 1527 1527 1528 1528 1529 1529 1530 1530 1530 1531 1532 1532 1532 1533 1533 1533 1533 1533 1533 1533 1533
1512 1513 1513 1514 1514 1515 1515 1516 1516 1517 1517 1518 1519 1520 1520 1521 1522 1522 1523 1524 1525 1526 1526 1527 1527 1528 1529 1529 1529 1530 1530 1531 1532 1532 1532 1533 1533 1533 1533 1533 1533 1533 1533
1512 1512 1512 1512 1513 1514 1514 1515 1515 1516 1516 1517 1518 1519 1519 1520 1521 1521 1522 1523 1524 1525 1526 1526 1527 1528 1528 1529 1529 1529 1530 1531 1532 1532 1532 1532 1532 1533 1533 1533 1533 1533 1533
1511 1511 1512 1512 1512 1512 1513 1513 1514 1515 1515 1516 1516 1517 1518 1518 1519 1520 1521 1522 1523 1524 1525 1525 1526 1527 1527 1528 1528 1529 1530 1531 1531 1531 1532 1532 1532 1532 1533 1533 1533 1533 1533
1510 1510 1511 1511 1511 1511 1511 1512 1512 1513 1513 1514 1515 1516 1517 1517 1518 1519 1520 1521 1522 1523 1523 1524 1525 1526 1526 1527 1527 1528 1529 1530 1531 1531 1531 1531 1532 1532 1532 1532 1533 1533 1532
1509 1509 1509 1509 1509 1509 1510 1510 1510 1511 1511 1512 1513 1514 1515 1516 1516 1517 1518 1519 1520 1521 1522 1523 1524 1525 1525 1526 1526 1527 1528 1529 1530 1530 1530 1530 1531 1531 1531 1532 1532 1532 1532
1508 1508 1508 1508 1508 1508 1508 1508 1508 1509 1509 1510 1511 1512 1513 1514 1515 1516 1517 1518 1519 1520 1521 1521 1522 1523 1524 1524 1525 1526 1527 1527 1528 1528 1529 1529 1530 1530 1530 1531 1531 1531 1531
1506 1506 1507 1506 1506 1506 1506 1507 1507 1507 1507 1507 1508 1509 1510 1511 1512 1514 1515 1516 1517 1517 1518 1519 1520 1521 1522 1522 1523 1524 1525 1526 1526 1527 1527 1527 1528 1529 1529 1529 1529 1529 1529
1504 1504 1505 1505 1505 1505 1505 1505 1505 1505 1505 1504 1506 1507 1508 1509 1510 1511 1512 1513 1514 1515 1516 1517 1518 1519 1520 1520 1521 1522 1523 1524 1524 1525 1525 1526 1526 1527 1527 1527 1527 1527 1527
1502 1502 1502 1503 1503 1503 1503 1503 1503 1503 1503 1503 1504 1504 1505 1506 1507 1508 1509 1510 1512 1513 1514 1515 1516 1517 1518 1518 1519 1520 1521 1522 1522 1523 1524 1524 1524 1524 1525 1525 1525 1526 1525
1499 1499 1500 1500 1500 1501 1501 1501 1501 1501 1501 1502 1502 1503 1503 1504 1504 1506 1507 1508 1509 1510 1511 1513 1514 1515 1516 1516 1517 1518 1519 1519 1520 1521 1521 1522 1522 1522 1523 1523 1523 1523 1523
1497 1497 1497 1498 1498 1498 1499 1499 1499 1499 1500 1500 1500 1501 1501 1501 1502 1503 1504 1505 1506 1507 1509 1510 1511 1512 1513 1514 1515 1515 1516 1517 1518 1518 1519 1519 1520 1520 1520 1520 1521 1521 1521
1495 1495 1495 1495 1496 1496 1496 1496 1497 1497 1497 1498 1498 1498 1499 1499 1499 1500 1502 1503 1504 1505 1506 1507 1508 1509 1510 1511 1512 1513 1513 1514 1515 1515 1516 1517 1517 1517 1518 1518 1518 1518 1518
1493 1493 1493 1493 1493 1493 1494 1494 1495 1495 1495 1496 1496 1496 1496 1497 1497 1498 1499 1500 1501 1502 1503 1504 1505 1506 1507 1508 1509 1510 1510 1511 1512 1513 1513 1514 1515 1515 1515 1515 1515 1515 1515
1491 1491 1491 1491 1491 1491 1491 1492 1492 1493 1493 1493 1494 1494 1494 1494 1495 1495 1496 1496 1497 1499 1500 1501 1502 1503 1504 1506 1507 1507 1508 1508 1509 1510 1510 1511 1511 1512 1512 1512 1512 1512 1511
1489 1489 1489 1489 1489 1489 1489 1490 1490 1490 1490 1491 1491 1491 1491 1491 1492 1492 1493 1494 1494 1495 1497 1498 1498 1499 1500 1502 1504 1504 1505 1507 1505 1506 1507 1508 1508 1508 1508 1509 1509 1508 1508
1488 1487 1487 1487 1487 1487 1488 1488 1488 1488 1488 1488 1488 1488 1488 1488 1489 1489 1490 1491 1491 1492 1493 1494 1495 1496 1497 1499 1500 1502 1503 1502 1503 1503 1504 1504 1505 1505 1505 1505 1505 1505 1504
1486 1485 1485 1485 1485 1485 1485 1485 1485 1485 1485 1485 1485 1485 1486 1486 1486 1486 1487 1487 1488 1489 1489 1490 1492 1493 1495 1495 1496 1498 1499 1499 1501 1500 1501 1501 1501 1501 1502 1502 1502 1501 1501
1484 1484 1483 1483 1483 1483 1483 1483 1482 1482 1482 1482 1482 1482 1483 1483 1482 1482 1483 1484 1485 1485 1486 1487 1489 1490 1491 1492 1492 1493 1495 1496 1497 1497 1497 1497 1498 1498 1497 1498 1498 1497 1497
1483 1482 1482 1481 1481 1481 1480 1480 1480 1479 1479 1479 1479 1479 1479 1479 1479 1479 1480 1480 1481 1481 1482 1483 1485 1486 1487 1488 1489 1490 1491 1492 1493 1494 1494 1493 1493 1493 1493 1493 1493 1493 1493